Погода в Елабуге

Погода в Елабуге : погода сейчас, прогноз погоды и архив. Всё, что Вы хотите узнать о погоде в Елабуге!

Поиск расширенной информации на нашем сайте:

Другие новости

Новости СМИ2

Главная страница сайта

Новости сайта

03.07.2017

Напоминаем, что на нашем специализированном сайте Метеоцентр.Азия вы можете получить высокодетализированные автоматические прогнозы погоды по пунктам России, СНГ и мира в авиационном формате (включающие направление и скорость ветра, видимость, явления погоды, количество и форму облачности, нижнюю и верхнюю границу облачности).


Погода в Елабуге - сегодня

Время (UTC), дата Ветер
(°,м/с) 
Видим.   Явления Облачность Т
(°С)
Тd
(°С)
f(%) Тe
(°С)
Pmin
(гПа)
dP
(гПа)
Po
(мм)
O2
(г/м3)
Тmin Tmax R s Состояние
почвы
18 17.11.17 270 (З) 10 км  {снег}  10/0 средняя 
[As trans]
+0.2 -3.9 74 -1  1019.8  1.2  756  305           
21 17.11.17 250 (З) 10 км    10/0 средняя 
[As trans]
-0.1 -4.2 74 -2  1020.3  0.4  757  305           
00 18.11.17 210 (ЮЗ) 10 км    10/0 средняя 
[As trans]
+0.1 -3.1 79 +1  1020.2  0.1  757  305           
03 18.11.17 220 (ЮЗ) 10 км    10/0 средняя 
[As trans]
+0.5 -2.4 81 1019.4  -0.8  756  304  -0.2      <0.5  мокрый или
старый снег
50-90% 
06 18.11.17 250 (З) 10 км    10/0 средняя 
[As trans]
+0.8 -2.6 78 -1  1019.1  -0.3  756  304  -0.2         
09 18.11.17 230 (ЮЗ) 10 км  {снег}  10/0 средняя 
[As op]
+1.4 -2.8 74 1018.8  -0.2  756  303           
12 18.11.17 250 (З) 3{10}  10 км  {снег}  10/0 средняя 
[As trans]
+0.7 -2.8 77 -1  1019.4  0.5  756  304           
15 18.11.17 240 (ЮЗ) 10 км  слаб. снег  10/0 средняя 
[As trans]
+0.6 -1.8 84 -1  1020.3  0.9  757  304    +1.4  0.2     
18 18.11.17 240 (ЮЗ) 10 км  {снег}  10/0 
[]
+1 -1.8 82 -1  1021.6  1.3  758  304           
21 18.11.17 230 (ЮЗ) 10 км    10/0 средняя 
[As trans]
+1.3 -1.7 80 1022.7  1.1  758  304           
00 19.11.17 210 (ЮЗ) 10 км    10/0 средняя 
[As trans]
+1 -2 80 +2  1023.3  0.6  759  305           
03 19.11.17 210 (ЮЗ) 10 км    10/0 средняя 
[As trans]
+1 -1.9 81 1023.3  759  305  +0.6         
06 19.11.17 210 (ЮЗ) 10 км    10/10 600 м 
[Sc]
+1.2 -1.7 81 1023.9  0.6  759  305           
09 19.11.17 210 (ЮЗ) 10 км  {снег}  10/10 600 м 
[Ns]
+1.4 -1.4 82 -1  1024.1  0.2  760  305           
12 19.11.17 220 (ЮЗ) 10 км    10/10 600 м 
[Ns]
+1.4 -2.6 75 +1  1024  760  305           
15 19.11.17 170 (Ю) 10 км    8/8 600 м 
[Sc]
+1.2 -2.4 77 +1  1023.7  -0.3  759  305    +1.9  0.4     
18 19.11.17 160 (Ю) 10 км    9/6 600 м средняя 
[Sc|Ac lent]
+0.8 -2.8 77 1022.6  -1.1  758  305           
21 19.11.17 170 (Ю) 10 км    9/9 600 м 
[Sc]
+1 -2.4 78 -1  1022  -0.6  758  305           
00 20.11.17 180 (Ю) 10 км    6/0 средняя 
[Ac As]
+0.9 -2.4 79 1021.2  -0.6  757  304           
03 20.11.17 150 (ЮВ) 10 км    10/0 средняя 
[Ac und]
+1.2 -1.8 80 1020.1  -1.1  757  304  +0.6         
06 20.11.17 160 (Ю) 10 км    10/0 средняя 
[Ac und]
+2.2 -0.8 81 +1  1019.5  -0.5  756  302           
09 20.11.17 160 (Ю) 10 км  слаб. дождь  10/10 600 м 
[Sc]
+2.6 +0.8 88 +1  1019.1  -0.4  756  302           
12 20.11.17 190 (Ю) 10 км  слаб. дождь  10/0 
[Sc]
+2.8 +0.8 87 +2  1019.2  0.1  756  301           
15 20.11.17 170 (Ю) 10 км  {дождь}  10/10 600 м 
[Sc]
+3 +0.6 84 +2  1019.6  0.4  756  301    +3     
18 20.11.17 170 (Ю) 10 км  {дождь}  10/10 600 м 
[Sc]
+3.7 +0.4 79 +3  1019.3  -0.2  756  301           
Время (UTC), дата Ветер
(°,м/с) 
Видим.   Явления Облачность Т
(°С)
Тd
(°С)
f(%) Тe
(°С)
Pmin
(гПа)
dP
(гПа)
Po
(мм)
O2
(г/м3)
Тmin Tmax R s Состояние
почвы

Для получения пояснительной информации подведите курсор к названию столбца.

ПОГОДА в Елабуге - архив

Всё, что Вы хотите узнать о погоде в Елабуге - удобно и подробно!

Выберите нужную дату (начиная с 1 января 2015* года) и нажмите кнопку "Найти".
Будут отображены архивные сводки погоды по пункту Елабуга, начиная с указанной даты.


Отображать данные в формате CSV (для использования в таблицах Excel)


Внимание! Наш архив погоды предназначен исключительно для личного некоммерческого использования в познавательных целях. Если Вам необходимы официальные справки о состоянии погоды (для производственных, юридических, коммерческих и т.п. целей), обращайтесь в органы Росгидромета.

*Примечание: данная дата относится к архиву по метеостанциям СССР (Россия, СНГ, Балтия).
Архив по метеостанциям Зарубежной Европы и Азии (кроме Китая) хранится 10 дней, по другим регионам земного шара (Китай, Африка, Америка, Австралия, Океания) - 1 день.

Елабуга - район местоположения метеостанции


Название, широта, долгота, высота метеостанции:
Елабуга 55.7°ш. 52.1°д. 90 м над ур. моря [Российская Федерация]

Дополнительная информация

В oтличие oт бoльшинства пoгoдных сайтoв мы публикуем пoдрoбную метеoинфoрмацию в детальнoм прoфессиoнальнoм фoрмате.

Характеристики температуры и влажнoсти вoздуха измеряются на высoте 2 м в тени вдали oт зданий и деревьев.
Скoрoсть ветра измеряется на высoте 10 м (на урoвне рoста челoвека скoрoсть ветра ниже в 1.5-2 раза). Если метеoстанция нахoдится в гoрoде или в лесу, тo скoрoсть ветра занижена на 2-4 м/с пo сравнению с oткрытым местoм. Скoрoсть ветра над акватoриями крупных рек и oзёр, а также на вершинах хoлмoв на 2-5 м/с выше, чем в oбычных услoвиях.
Атмoсфернoе давление в разных тoчках местнoсти мoжет значительнo oтличаться oт давления на метеoстанции, в зависимoсти oт услoвий рельефа (при пoдъёме на 10 м давление пoнижается примернo на 1 мм рт.ст.).